{"data":{"norad_id":82912,"intl_designator":"","name":"UNKNOWN","alt_names":[],"object_type":"UNKNOWN","status":"UNKNOWN","operator":null,"country":null,"launch_date":null,"launch_site_code":null,"launch_vehicle":null,"mission":null,"orbit_class":"UNKNOWN","rcs_meters":null,"size_class":null,"mass_kg":null,"dimensions":null,"purposes":[],"wikipedia_slug":null,"has_3d_model":false,"image_url":null,"decayed_at":null,"tle_current":{"epoch":"2026-05-23T18:11:17.053728Z","epoch_age_seconds":178504,"freshness":"STALE","line1":"1 82912U          26143.75783627  .00000900  00000+0  40544-3 0  9991","line2":"2 82912  65.8316 160.5571 0767024 195.2436 162.4281 13.28770567600842","mean_motion":13.28770567,"eccentricity":0.0767024,"inclination_deg":65.8316,"raan_deg":160.5571,"arg_perigee_deg":195.2436,"mean_anomaly_deg":162.4281,"bstar":0.00040544,"rev_number":60084,"period_min":108.37085316024,"perigee_km":573.87022619588,"apogee_km":1728.9379726442,"semimajor_km":7529.54109942,"source":"CELESTRAK","updated_at":"2026-05-25T13:38:11.421964Z"}}}